Durango, CO

6:41 AM MDT on October 20, 2017 (GMT -0600)
Durango-La Plata County

Weather History for KDRO - August, 2015

Change the Weather History Date:

Tuesday, August 25, 2015

  Actual Average Record
Temperature  
Mean Temperature 72 °F 66 °F  
Max Temperature 88 °F 82 °F 92 °F (1985)
Min Temperature 56 °F 49 °F 37 °F (2002)
Degree Days  
Heating Degree Days 0 1  
Month to date heating degree days 3 8  
Since 1 June heating degree days 99 133  
Since 1 July heating degree days 18 18  
Cooling Degree Days 7 1  
Month to date cooling degree days 91 79  
Year to date cooling degree days 245 230  
Since 1 June cooling degree days 245 229  
Growing Degree Days 22 (Base 50)    
Moisture  
Dew Point 44 °F    
Average Humidity 40    
Maximum Humidity 62    
Minimum Humidity 17    
Precipitation  
Precipitation 0.09 in 0.07 in 0.73 in (2013)
Month to date precipitation 0.77 1.69  
Year to date precipitation 11.63 9.48  
Sea Level Pressure  
Sea Level Pressure 30.15 in    
Wind  
Wind Speed 6 mph (NE)    
Max Wind Speed 25 mph    
Max Gust Speed 33 mph    
Visibility 10 miles    
Events Rain , Thunderstorm    
T = Trace of Precipitation, MM = Missing Value Source: NWS Daily Summary

Daily Weather History Graph

Daily Weather History Graph

Search for Another Location

Airport or City:

Trip Planner

Search our weather history database for the weather conditions in past years. The results will help you decide how hot, cold, wet, or windy it might be!

Date:

Astronomy

Aug. 25, 2015 Rise Set
Actual Time 6:35 AM MDT 7:49 PM MDT
Civil Twilight 6:08 AM MDT 8:16 PM MDT
Nautical Twilight 5:36 AM MDT 8:48 PM MDT
Astronomical Twilight 5:02 AM MDT 9:22 PM MDT
Moon 4:36 PM MDT (8/25) 2:08 AM MDT (8/25)
Length of Visible Light 14h 08m
Length of Day
13h 14m
Waxing Gibbous, 79% of the Moon is Illuminated
Aug 25
Waxing Gibbous
Aug 29
Full
Sep 5
Last Quarter
Sep 13
New
Sep 21
First Quarter

Hourly Weather History & Observations

Time (MDT) Temp. Dew Point Humidity Pressure Visibility Wind Dir Wind Speed Gust Speed Precip Events Conditions
12:53 AM 63.0 °F 42.1 °F 46% 30.07 in 10.0 mi East 8.1 mph - N/A   Scattered Clouds
1:53 AM 64.9 °F 46.0 °F 50% 30.07 in 10.0 mi ENE 4.6 mph - N/A   Partly Cloudy
2:53 AM 64.0 °F 46.0 °F 52% 30.07 in 10.0 mi East 3.5 mph - N/A   Mostly Cloudy
4:53 AM 59.0 °F 44.1 °F 58% 30.10 in 10.0 mi Calm Calm - N/A   Clear
5:53 AM 59.0 °F 44.1 °F 58% 30.11 in 10.0 mi Calm Calm - N/A   Clear
6:53 AM 57.0 °F 44.1 °F 62% 30.14 in 10.0 mi Calm Calm - N/A   Clear
7:53 AM 61.0 °F 45.0 °F 56% 30.17 in 10.0 mi Calm Calm - N/A   Clear
8:53 AM 69.1 °F 46.9 °F 45% 30.16 in 10.0 mi Calm Calm - N/A   Clear
9:53 AM 73.9 °F 46.9 °F 38% 30.15 in 10.0 mi Calm Calm - N/A   Clear
10:53 AM 77.0 °F 46.9 °F 34% 30.15 in 10.0 mi ENE 4.6 mph - N/A   Clear
11:53 AM 79.0 °F 46.0 °F 31% 30.15 in 10.0 mi ENE 8.1 mph - N/A   Clear
12:53 PM 82.9 °F 44.1 °F 25% 30.09 in 10.0 mi Variable 6.9 mph - N/A   Clear
1:53 PM 86.0 °F 43.0 °F 22% 30.04 in 10.0 mi South 8.1 mph - N/A   Clear
2:53 PM 86.0 °F 42.1 °F 21% 30.01 in 10.0 mi West 6.9 mph - N/A   Partly Cloudy
3:53 PM 84.0 °F 42.1 °F 23% 30.29 in 10.0 mi NNW 5.8 mph - N/A   Scattered Clouds
4:53 PM 87.1 °F 37.0 °F 17% 29.98 in 10.0 mi East 11.5 mph - N/A   Scattered Clouds
5:53 PM 79.0 °F 42.1 °F 27% 30.02 in 10.0 mi ENE 20.7 mph 32.2 mph N/A   Mostly Cloudy
6:01 PM 78.1 °F 42.1 °F 28% 30.28 in 10.0 mi NE 19.6 mph 31.1 mph N/A   Overcast
6:53 PM 75.9 °F 42.1 °F 30% 30.05 in 10.0 mi North 15.0 mph - N/A Thunderstorm Mostly Cloudy
7:24 PM 75.0 °F 44.1 °F 33% 30.33 in 10.0 mi WSW 5.8 mph - N/A   Overcast
7:44 PM 73.9 °F 44.1 °F 34% 30.33 in 10.0 mi North 4.6 mph - N/A Thunderstorm Mostly Cloudy
7:53 PM 73.0 °F 44.1 °F 35% 30.08 in 10.0 mi Calm Calm - N/A   Mostly Cloudy
8:01 PM 73.0 °F 44.1 °F 35% 30.33 in 10.0 mi NE 6.9 mph - N/A Thunderstorm Scattered Clouds
8:29 PM 72.0 °F 46.0 °F 40% 30.33 in 10.0 mi North 8.1 mph - N/A   Mostly Cloudy
8:53 PM 72.0 °F 44.1 °F 37% 30.06 in 10.0 mi North 9.2 mph - N/A   Scattered Clouds
9:05 PM 72.0 °F 44.1 °F 37% 30.32 in 10.0 mi North 13.8 mph - N/A Thunderstorm Mostly Cloudy
9:20 PM 70.0 °F 46.0 °F 42% 30.32 in 10.0 mi NNW 8.1 mph - N/A   Mostly Cloudy
9:53 PM 69.1 °F 46.0 °F 44% 30.07 in 10.0 mi SSE 3.5 mph - N/A   Partly Cloudy
10:53 PM 66.9 °F 46.0 °F 47% 30.10 in 10.0 mi East 5.8 mph - N/A   Overcast
11:53 PM 64.9 °F 51.1 °F 61% 30.14 in 10.0 mi SE 16.1 mph - 0.01 in Rain Light Rain